Terminal Aerodrome Forecast
Issued by NWS

Home | Current Version | Previous Version | Text Only | Print | Product List | Glossary On
Versions: 1 2 3 4 5 6 7 8 9 10 11 12 13
000
FTUS43 KPAH 300535
TAFCGI
TAF
KCGI 300535Z 3006/0106 VRB03KT P6SM BCFG SKC
     FM300700 30005KT P6SM SCT150
     FM301700 26011G18KT P6SM SCT040
     FM010000 24006KT P6SM SCT045=

USA.gov is the U.S. government's official web portal to all federal, state and local government web resources and services.